• In Latvia
  • List of Countries
  • For 7 days
  • Water Temperature
  • Satellite Maps
  • Weather Map
  • Weather Widgets
  • user-avatar
    Login

    Hourly Weather Yulara

    Today, 25 May, Thursday

    Time Temperature Precipitation Wind Pressure Humidity
    00:00 +21°C° 0 mm 5 mps 721 mmHg 37%
    01:00 +21°C° 0 mm 5 mps 721 mmHg 37%
    02:00 +21°C° 0 mm 5 mps 721 mmHg 38%
    03:00 +20°C° 0 mm 5 mps 721 mmHg 39%
    04:00 +20°C° 0 mm 5 mps 721 mmHg 39%
    05:00 +20°C° 0 mm 5 mps 721 mmHg 39%
    06:00 +19°C° 0 mm 5 mps 721 mmHg 40%
    07:00 +20°C° 0.1 mm 4 mps 721 mmHg 38%
    08:00 +20°C° 0.1 mm 4 mps 721 mmHg 37%
    09:00 +22°C° 0 mm 3 mps 722 mmHg 32%
    10:00 +24°C° 0 mm 3 mps 722 mmHg 30%
    11:00 +25°C° 0 mm 2 mps 722 mmHg 28%
    12:00 +27°C° 0 mm 1 mps 721 mmHg 25%
    13:00 +27°C° 0 mm 1 mps 721 mmHg 25%
    14:00 +28°C° 0 mm 1 mps 721 mmHg 24%
    15:00 +27°C° 0 mm 1 mps 720 mmHg 27%
    16:00 +26°C° 0 mm 2 mps 720 mmHg 30%
    17:00 +26°C° 0 mm 3 mps 720 mmHg 33%
    18:00 +25°C° 0 mm 4 mps 720 mmHg 35%
    19:00 +23°C° 0.1 mm 4 mps 721 mmHg 39%
    20:00 +22°C° 0.1 mm 4 mps 721 mmHg 42%
    21:00 +21°C° 0.1 mm 4 mps 721 mmHg 46%
    22:00 +20°C° 0.3 mm 4 mps 721 mmHg 48%
    23:00 +19°C° 0.3 mm 3 mps 721 mmHg 51%

    Tomorrow, 26 May, Friday

    Time Temperature Precipitation Wind Pressure Humidity
    00:00 +19°C° 0.3 mm 3 mps 721 mmHg 54%
    01:00 +18°C° 0.4 mm 3 mps 721 mmHg 55%
    02:00 +18°C° 0.4 mm 3 mps 721 mmHg 56%
    03:00 +18°C° 0.4 mm 2 mps 720 mmHg 56%
    04:00 +17°C° 0.2 mm 3 mps 720 mmHg 55%
    05:00 +17°C° 0.2 mm 3 mps 720 mmHg 54%
    06:00 +17°C° 0.2 mm 3 mps 720 mmHg 53%
    07:00 +18°C° 0.3 mm 3 mps 721 mmHg 48%
    08:00 +18°C° 0.3 mm 4 mps 721 mmHg 43%
    09:00 +19°C° 0.3 mm 4 mps 721 mmHg 39%
    10:00 +21°C° 0.2 mm 4 mps 721 mmHg 35%
    11:00 +22°C° 0.2 mm 3 mps 721 mmHg 31%
    12:00 +25°C° 0.2 mm 3 mps 720 mmHg 28%
    13:00 +26°C° 0.1 mm 3 mps 720 mmHg 27%
    14:00 +26°C° 0.1 mm 3 mps 719 mmHg 27%
    15:00 +27°C° 0.1 mm 4 mps 719 mmHg 27%
    16:00 +26°C° 0 mm 3 mps 719 mmHg 30%
    17:00 +25°C° 0 mm 3 mps 719 mmHg 33%
    18:00 +24°C° 0 mm 2 mps 719 mmHg 36%
    19:00 +24°C° 0.2 mm 2 mps 719 mmHg 38%
    20:00 +23°C° 0.2 mm 2 mps 720 mmHg 41%
    21:00 +23°C° 0.2 mm 2 mps 720 mmHg 43%
    22:00 +21°C° 0.1 mm 3 mps 720 mmHg 45%
    23:00 +20°C° 0.1 mm 3 mps 720 mmHg 47%

    Day after tomorrow, 27 May, Saturday

    Time Temperature Precipitation Wind Pressure Humidity
    00:00 +20°C° 0.1 mm 4 mps 720 mmHg 49%
    01:00 +19°C° 0.1 mm 4 mps 720 mmHg 48%
    02:00 +19°C° 0.1 mm 4 mps 720 mmHg 47%
    03:00 +18°C° 0.1 mm 4 mps 720 mmHg 46%
    04:00 +18°C° 0.1 mm 4 mps 720 mmHg 45%
    05:00 +18°C° 0.1 mm 3 mps 720 mmHg 44%
    06:00 +18°C° 0.1 mm 3 mps 720 mmHg 43%
    07:00 +18°C° 0.1 mm 3 mps 720 mmHg 41%
    08:00 +19°C° 0.1 mm 3 mps 721 mmHg 39%
    09:00 +19°C° 0.1 mm 3 mps 721 mmHg 37%
    10:00 +20°C° 0 mm 2 mps 721 mmHg 34%
    11:00 +21°C° 0 mm 2 mps 721 mmHg 31%
    12:00 +24°C° 0 mm 2 mps 721 mmHg 28%
    13:00 +24°C° 0 mm 1 mps 721 mmHg 26%
    14:00 +25°C° 0 mm 1 mps 720 mmHg 24%
    15:00 +25°C° 0 mm 1 mps 720 mmHg 22%
    16:00 +25°C° 0 mm 1 mps 720 mmHg 25%
    17:00 +24°C° 0 mm 1 mps 720 mmHg 28%
    18:00 +21°C° 0 mm 0 mps 720 mmHg 31%
    19:00 +22°C° 0 mm 1 mps 720 mmHg 32%
    20:00 +21°C° 0 mm 1 mps 721 mmHg 33%
    21:00 +21°C° 0 mm 1 mps 721 mmHg 34%
    22:00 +20°C° 0 mm 1 mps 721 mmHg 33%
    23:00 +19°C° 0 mm 2 mps 721 mmHg 33%

    28 May, Sunday

    Time Temperature Precipitation Wind Pressure Humidity
    00:00 +18°C° 0 mm 2 mps 721 mmHg 33%
    01:00 +18°C° 0 mm 2 mps 721 mmHg 33%
    02:00 +17°C° 0 mm 2 mps 721 mmHg 34%
    03:00 +17°C° 0 mm 2 mps 720 mmHg 34%
    04:00 +16°C° 0 mm 2 mps 721 mmHg 34%
    05:00 +16°C° 0 mm 2 mps 721 mmHg 34%
    06:00 +15°C° 0 mm 2 mps 721 mmHg 34%
    07:00 +16°C° 0 mm 3 mps 722 mmHg 32%
    08:00 +18°C° 0 mm 3 mps 722 mmHg 30%
    09:00 +19°C° 0 mm 3 mps 723 mmHg 27%
    10:00 +20°C° 0 mm 3 mps 723 mmHg 25%
    11:00 +21°C° 0 mm 3 mps 723 mmHg 22%
    12:00 +24°C° 0 mm 3 mps 723 mmHg 20%
    13:00 +24°C° 0 mm 3 mps 722 mmHg 20%
    14:00 +25°C° 0 mm 2 mps 722 mmHg 20%
    15:00 +25°C° 0 mm 2 mps 721 mmHg 19%
    16:00 +24°C° 0 mm 2 mps 721 mmHg 22%
    17:00 +22°C° 0 mm 3 mps 721 mmHg 24%
    18:00 +21°C° 0 mm 3 mps 721 mmHg 26%
    19:00 +20°C° 0 mm 3 mps 722 mmHg 28%
    20:00 +20°C° 0 mm 4 mps 723 mmHg 29%
    21:00 +19°C° 0 mm 4 mps 723 mmHg 31%
    22:00 +18°C° 0 mm 4 mps 723 mmHg 34%
    23:00 +17°C° 0 mm 4 mps 723 mmHg 37%

    29 May, Monday

    Time Temperature Precipitation Wind Pressure Humidity
    00:00 +17°C° 0 mm 4 mps 723 mmHg 40%
    01:00 +15°C° 0 mm 4 mps 723 mmHg 44%
    02:00 +14°C° 0 mm 4 mps 723 mmHg 47%
    03:00 +14°C° 0 mm 4 mps 723 mmHg 51%
    04:00 +13°C° 0 mm 4 mps 723 mmHg 55%
    05:00 +13°C° 0 mm 4 mps 723 mmHg 59%
    06:00 +12°C° 0 mm 4 mps 723 mmHg 63%
    07:00 +13°C° 0 mm 4 mps 724 mmHg 61%
    08:00 +14°C° 0 mm 5 mps 724 mmHg 58%
    09:00 +14°C° 0 mm 5 mps 724 mmHg 56%
    10:00 +16°C° 0 mm 5 mps 724 mmHg 51%
    11:00 +17°C° 0 mm 5 mps 724 mmHg 46%
    12:00 +20°C° 0 mm 4 mps 724 mmHg 41%
    13:00 +20°C° 0 mm 4 mps 723 mmHg 38%
    14:00 +21°C° 0 mm 3 mps 723 mmHg 36%
    15:00 +23°C° 0 mm 2 mps 722 mmHg 34%
    16:00 +21°C° 0 mm 2 mps 722 mmHg 36%
    17:00 +20°C° 0 mm 3 mps 722 mmHg 38%
    18:00 +19°C° 0 mm 3 mps 723 mmHg 40%
    19:00 +18°C° 0 mm 3 mps 723 mmHg 42%
    20:00 +18°C° 0 mm 3 mps 723 mmHg 44%
    21:00 +17°C° 0 mm 3 mps 724 mmHg 45%
    22:00 +17°C° 0 mm 4 mps 724 mmHg 47%
    23:00 +15°C° 0 mm 4 mps 724 mmHg 49%

    30 May, Tuesday

    Time Temperature Precipitation Wind Pressure Humidity
    00:00 +14°C° 0 mm 4 mps 724 mmHg 50%
    01:00 +14°C° 0 mm 4 mps 724 mmHg 52%
    02:00 +13°C° 0 mm 3 mps 723 mmHg 54%
    03:00 +13°C° 0 mm 3 mps 723 mmHg 55%
    04:00 +12°C° 0 mm 3 mps 723 mmHg 57%
    05:00 +12°C° 0 mm 3 mps 724 mmHg 59%
    06:00 +11°C° 0 mm 3 mps 724 mmHg 61%
    07:00 +12°C° 0 mm 4 mps 724 mmHg 58%
    08:00 +13°C° 0 mm 4 mps 725 mmHg 54%
    09:00 +14°C° 0 mm 5 mps 725 mmHg 51%
    10:00 +15°C° 0 mm 5 mps 725 mmHg 47%
    11:00 +16°C° 0 mm 5 mps 725 mmHg 43%
    12:00 +19°C° 0 mm 5 mps 725 mmHg 38%
    13:00 +19°C° 0 mm 5 mps 724 mmHg 36%
    14:00 +20°C° 0 mm 5 mps 724 mmHg 34%
    15:00 +20°C° 0 mm 6 mps 724 mmHg 32%
    16:00 +19°C° 0 mm 5 mps 724 mmHg 35%
    17:00 +17°C° 0 mm 5 mps 724 mmHg 37%
    18:00 +16°C° 0 mm 5 mps 724 mmHg 39%
    19:00 +16°C° 0 mm 5 mps 725 mmHg 41%
    20:00 +16°C° 0 mm 5 mps 725 mmHg 42%
    21:00 +15°C° 0 mm 5 mps 726 mmHg 44%
    22:00 +15°C° 0 mm 5 mps 726 mmHg 45%
    23:00 +14°C° 0 mm 5 mps 726 mmHg 46%
    Show more